Temp
90 83 79 85 88 86 83 81 79 81 86 82 81 79 77 79 85 83 86 90 90 91 92 94 93 93 92 88 83 81 81 79 81 83 79 81 79 83 82 86 84 83 88 84
85 79 88 92 90 86 84 81 77 81 86 83 79 80 76 81 84 86 87 89 88 88 90 91 93 90 90 85 83 81 80 81 80 82 83 84 80 86 86 87 85 89 87 90
81 87 93 89 87 83 83 81 77 73 83 74 73 65 63 74 72 90 90 91 93 90 89 90 91 89 88 85 83 80 80 81 80 80 81 83 82 83 85 86 83 88 90 87
86 92 89 86 84 86 79 88 86 83 79 65 69 55 61 66 66 76 89 90 92 91 90 87 93 93 92 84 86 82 81 81 83 83 83 81 81 77 83 83 84 79 79 77
83 86 86 83 85 89 82 90 85 84 80 73 70 62 67 67 63 63 77 91 93 94 93 88 93 92 95 94 90 82 81 81 81 82 83 82 81 83 85 84 85 79 73 75
87 96 91 89 92 91 91 86 85 83 68 64 70 72 70 71 63 63 72 90 93 95 94 93 93 93 93 94 93 83 81 79 79 82 81 80 80 80 80 83 81 80 81 82
84 86 92 93 86 90 88 81 65 64 54 49 72 68 76 86 84 89 90 93 94 95 95 90 91 91 90 91 91 88 82 79 80 81 83 81 81 81 81 80 83 83 80 79
77 74 86 92 86 83 84 83 66 58 54 62 76 57 75 90 94 92 93 95 95 94 94 93 92 91 88 90 89 90 82 79 81 81 81 81 83 84 83 83 85 84 85 81
77 79 93 92 93 90 83 78 89 78 80 74 72 73 86 90 90 90 91 92 92 93 94 94 93 93 92 87 87 88 83 81 82 83 79 80 80 81 83 83 84 86 85 87
85 75 89 92 94 93 87 91 76 78 63 62 72 70 69 73 81 88 88 90 90 93 94 94 93 92 92 92 89 88 85 83 82 83 82 83 82 83 82 83 84 85 86 88
90 83 82 89 84 82 84 81 83 83 78 67 63 67 70 61 67 86 90 91 92 92 93 94 94 93 94 91 90 89 85 84 84 86 84 83 83 84 83 83 84 84 85 85
91 85 75 81 92 94 91 85 86 75 72 77 76 71 87 77 75 91 92 92 94 94 94 95 94 92 92 89 88 87 86 85 86 85 85 85 85 85 85 83 84 84 83 84
89 80 71 75 85 88 85 88 88 87 86 73 71 72 91 93 92 94 92 93 92 92 92 93 93 89 89 88 85 85 86 87 88 87 87 86 85 84 84 84 84 84 83 83
84 83 77 70 73 79 74 80 83 80 70 75 78 77 78 78 79 90 87 91 92 92 90 91 90 89 88 87 86 85 85 87 87 86 86 84 84 84 85 85 85 84 84 83
87 75 79 81 83 78 74 76 76 72 73 70 79 79 77 81 80 75 80 83 91 91 91 90 90 86 86 86 85 85 84 85 85 85 82 82 84 84 83 83 83 84 84 84
87 74 77 74 81 81 69 75 74 77 71 74 83 82 88 76 78 73 76 79 81 89 91 92 91 88 86 86 85 85 84 83 83 84 84 85 85 84 83 83 83 83 83 83
81 77 72 67 78 77 70 73 72 77 79 80 72 85 87 83 83 76 77 81 81 90 91 90 91 89 88 88 86 85 85 85 84 83 83 84 85 84 83 84 83 82 82 83
78 75 74 68 71 58 77 87 87 80 76 76 77 84 86 73 87 86 86 86 92 92 92 91 92 92 90 92 89 87 87 85 83 82 83 83 83 82 83 82 82 82 81 80
85 78 71 66 66 71 77 83 82 79 74 75 77 82 86 86 86 83 85 96 94 94 95 94 95 95 89 89 88 87 85 84 83 82 82 83 84 82 82 81 80 82 80 79
84 83 74 69 62 59 75 86 92 88 71 84 83 82 81 83 72 62 73 78 95 94 98 97 99 97 94 93 92 87 85 83 82 83 83 83 79 77 81 80 79 80 78 76
71 68 66 68 67 72 83 85 91 69 71 82 83 82 80 69 66 64 65 71 96 99 97 97 96 93 92 92 89 86 85 84 83 81 80 79 81 81 79 78 77 76 76 76
68 66 65 64 56 57 78 75 72 77 85 84 83 83 82 81 71 72 71 84 94 94 95 96 92 90 91 90 87 85 79 80 81 79 79 79 78 78 76 73 74 73 73 72
65 69 63 66 63 65 76 71 68 83 81 82 82 85 85 86 87 83 85 89 92 93 92 94 89 86 86 87 86 79 77 79 79 79 78 77 76 75 73 72 72 73 72 69
73 75 68 66 67 63 71 73 64 62 75 83 85 86 86 85 87 89 89 88 88 89 90 88 85 84 82 84 82 78 79 79 79 77 76 76 75 74 75 76 75 73 69 67
71 72 68 68 72 72 75 73 68 68 72 79 83 85 85 86 88 89 88 87 87 87 87 86 83 81 80 81 79 80 79 79 77 77 77 76 76 74 73 73 71 71 65 61
73 68 65 63 67 70 71 67 72 64 69 73 80 83 84 85 85 89 83 86 85 85 85 83 82 81 80 79 79 79 80 79 77 76 77 78 78 74 74 76 65 50 51 48
MSLP
1003.21 1002.95 1002.00 1000.99 1000.31 1000.76 1001.26 1001.10 1000.87 1001.37 1001.79 1002.70 1002.99 1003.65 1004.85 1005.11 1004.79 1004.63 1004.08 1003.61 1003.96 1004.41 1005.49 1006.22 1006.92 1008.10 1008.95 1010.28 1011.21 1011.97 1012.59 1013.26 1013.72 1014.15 1014.59 1014.58 1014.65 1014.16 1014.06 1014.05 1014.41 1014.29 1014.69 1014.94
1002.65 1001.73 1001.11 1000.52 1000.17 1000.72 1000.76 1000.39 1000.73 1002.07 1001.79 1002.55 1003.23 1003.22 1003.87 1003.98 1003.56 1003.53 1003.31 1003.20 1003.25 1003.76 1005.01 1005.90 1006.44 1007.38 1008.58 1009.85 1010.87 1011.65 1012.52 1013.10 1013.64 1013.83 1014.02 1013.98 1014.17 1013.83 1013.69 1013.89 1014.15 1014.11 1014.43 1014.47
1001.56 1000.29 1000.04 1000.35 1000.00 1000.37 999.94 999.70 1000.57 1001.86 1001.43 1003.28 1004.11 1005.06 1005.31 1005.53 1004.82 1002.82 1002.97 1003.02 1002.70 1003.25 1004.22 1005.34 1006.07 1006.97 1008.09 1009.36 1010.41 1011.28 1012.10 1012.82 1013.35 1013.52 1013.73 1013.83 1013.90 1013.82 1013.74 1014.06 1014.42 1014.20 1014.20 1014.30
1000.77 1000.25 999.86 1000.10 999.95 999.82 999.11 999.34 999.86 1000.42 1001.15 1002.85 1004.43 1005.88 1005.82 1005.95 1005.40 1004.96 1002.48 1002.35 1002.24 1002.65 1003.55 1004.40 1005.12 1006.12 1007.19 1008.71 1009.77 1010.78 1011.61 1012.46 1012.90 1013.18 1013.29 1013.54 1013.71 1013.90 1013.99 1014.20 1014.29 1014.60 1014.57 1014.69
999.99 999.85 999.74 999.58 999.49 999.25 999.58 999.47 1000.13 1000.49 1000.84 1002.12 1004.19 1005.28 1004.71 1005.26 1006.83 1004.64 1003.27 1001.49 1001.55 1001.67 1002.63 1003.74 1004.51 1005.49 1006.12 1007.36 1008.84 1010.26 1011.19 1012.03 1012.55 1012.97 1013.01 1013.32 1013.60 1013.59 1013.70 1013.96 1014.22 1014.49 1014.31 1014.22
1000.10 999.46 999.48 999.34 999.17 999.23 999.71 999.78 1000.04 1000.55 1002.77 1003.32 1003.23 1003.27 1003.00 1003.49 1003.10 1003.42 1001.71 1000.72 1000.67 1000.92 1001.77 1002.97 1003.91 1004.88 1006.13 1006.82 1008.02 1009.69 1010.61 1011.62 1012.45 1012.84 1013.13 1013.34 1013.33 1013.58 1013.71 1013.76 1014.01 1014.36 1014.50 1014.54
999.61 999.47 999.28 999.38 998.91 998.86 999.31 999.40 1000.18 1001.20 1004.16 1005.48 1002.47 1003.01 1000.52 999.69 1000.36 999.83 999.43 999.13 999.49 1000.22 1000.99 1002.37 1003.47 1004.56 1005.73 1006.65 1007.50 1008.86 1010.19 1011.23 1011.97 1012.56 1012.79 1013.18 1013.27 1013.49 1013.78 1013.75 1013.98 1014.12 1014.39 1014.43
998.29 997.91 998.29 998.49 998.82 998.54 998.43 998.51 999.50 999.44 1001.25 1001.21 1001.17 1002.31 999.90 998.77 998.70 999.20 998.99 998.53 999.00 999.77 1000.66 1001.86 1003.02 1004.30 1005.40 1006.42 1007.34 1008.26 1009.76 1010.79 1011.55 1012.23 1012.50 1012.88 1013.06 1013.23 1013.38 1013.60 1013.53 1013.68 1013.70 1013.87
997.80 996.58 996.59 997.61 998.17 998.56 998.29 997.88 997.43 997.75 997.58 997.74 999.98 1000.39 999.19 998.87 998.53 998.44 998.28 998.58 998.95 999.78 1000.61 1001.65 1002.83 1004.11 1005.32 1006.23 1007.19 1008.11 1009.28 1010.24 1011.07 1011.66 1012.31 1012.73 1012.97 1012.99 1012.85 1012.96 1013.27 1013.51 1013.58 1013.50
998.00 997.35 996.72 996.72 997.47 997.73 997.86 997.86 997.71 997.46 997.50 997.73 998.07 999.39 1000.40 1000.86 1000.04 999.23 998.65 998.52 999.25 999.94 1000.64 1001.72 1002.67 1003.68 1004.82 1005.85 1006.98 1007.90 1008.87 1009.70 1010.58 1011.15 1011.76 1012.21 1012.57 1012.75 1012.83 1012.81 1012.95 1013.09 1013.33 1013.35
997.81 997.76 997.11 996.80 997.01 997.27 997.45 997.53 997.51 997.55 997.60 997.41 997.92 998.85 1000.14 1001.42 1001.29 999.53 998.94 998.79 999.35 1000.03 1000.79 1001.58 1002.44 1003.52 1004.47 1005.43 1006.55 1007.70 1008.65 1009.40 1009.94 1010.37 1010.94 1011.43 1011.92 1012.28 1012.55 1012.60 1012.75 1012.88 1013.21 1013.46
997.77 997.84 997.47 997.07 996.81 996.92 996.82 996.89 996.77 996.76 996.74 996.76 996.81 997.60 998.73 1000.37 999.55 998.76 998.60 998.65 999.24 1000.01 1000.82 1001.61 1002.41 1003.54 1004.42 1005.32 1006.25 1007.20 1008.07 1008.76 1009.34 1009.78 1010.22 1010.73 1011.23 1011.63 1011.98 1012.27 1012.46 1012.76 1013.01 1013.29
998.53 998.21 997.97 997.45 997.00 996.98 996.79 996.85 997.03 996.98 996.35 996.54 996.49 997.20 997.87 997.95 998.32 998.42 998.33 998.55 999.20 1000.00 1000.85 1001.68 1002.43 1003.43 1004.28 1005.21 1006.02 1006.77 1007.59 1008.23 1008.81 1009.27 1009.84 1010.25 1010.72 1011.11 1011.36 1011.51 1011.79 1012.13 1012.42 1012.71
999.63 999.08 998.44 998.00 998.45 999.19 999.40 998.68 998.46 998.80 998.25 997.11 996.46 997.29 998.74 998.94 1000.10 999.01 998.67 998.12 999.41 999.65 1000.87 1001.65 1002.53 1003.39 1004.16 1004.95 1005.76 1006.48 1007.16 1007.80 1008.34 1008.83 1009.34 1009.77 1010.17 1010.55 1010.83 1011.05 1011.17 1011.51 1011.80 1012.10
999.87 999.53 999.39 998.89 998.85 999.56 1000.42 1000.00 999.36 999.74 999.60 998.95 997.10 997.45 998.67 999.27 1000.68 1000.96 1000.17 998.89 999.57 999.49 1000.54 1001.61 1002.37 1003.30 1004.09 1004.83 1005.56 1006.25 1006.88 1007.49 1008.02 1008.48 1008.82 1009.13 1009.49 1009.87 1010.32 1010.63 1010.72 1010.92 1011.16 1011.41
1000.03 999.92 1000.03 999.73 999.42 999.44 1000.56 1001.08 1000.71 1000.54 1000.33 998.76 997.42 997.21 998.15 999.27 998.68 1001.11 1001.08 999.10 999.88 999.65 1000.20 1001.09 1002.02 1002.89 1003.67 1004.36 1005.22 1005.98 1006.65 1007.16 1007.65 1008.12 1008.38 1008.72 1009.02 1009.38 1009.80 1010.13 1010.38 1010.58 1010.69 1010.94
999.97 1000.14 1000.36 999.75 999.53 999.43 999.07 999.51 999.73 999.00 999.50 998.54 998.38 997.51 998.70 999.78 999.78 1000.72 1000.27 999.12 999.16 999.16 999.73 1000.40 1001.33 1002.24 1003.11 1003.79 1004.64 1005.46 1006.14 1006.81 1007.38 1007.78 1008.18 1008.51 1008.89 1009.16 1009.46 1009.71 1010.00 1010.29 1010.56 1010.67
1000.29 1000.54 1000.83 1000.41 1000.48 999.25 998.71 998.42 997.68 998.25 999.08 999.35 998.92 998.28 998.45 1000.32 1000.41 999.52 999.24 997.98 997.72 997.98 998.69 999.56 1000.36 1001.30 1002.36 1003.26 1004.20 1005.06 1005.78 1006.45 1007.07 1007.58 1008.00 1008.35 1008.71 1009.04 1009.39 1009.63 1009.79 1010.00 1010.23 1010.56
1000.37 1000.35 1000.32 1000.35 999.88 999.30 998.70 998.11 997.65 997.58 998.49 999.70 999.48 999.20 998.02 998.87 999.06 998.89 998.42 996.61 997.58 997.79 998.34 998.99 999.42 1000.25 1001.48 1002.45 1003.59 1004.67 1005.56 1006.36 1007.05 1007.58 1008.02 1008.40 1008.72 1009.00 1009.26 1009.39 1009.52 1009.70 1010.03 1010.32
999.78 999.93 1000.35 1000.45 999.96 999.00 998.76 998.21 997.75 997.35 998.44 998.62 999.48 999.38 999.43 999.44 1000.08 1001.78 1001.02 1001.85 997.32 997.88 997.46 998.41 998.87 999.95 1001.15 1002.04 1003.21 1004.38 1005.39 1006.27 1006.94 1007.39 1007.86 1008.23 1008.77 1009.11 1009.32 1009.43 1009.68 1009.78 1010.13 1010.30
1000.05 1000.32 1000.46 1000.39 1000.03 999.41 999.29 999.08 998.32 998.40 999.23 999.27 999.26 999.63 1000.33 1001.16 1002.01 1002.94 1002.74 1000.75 996.53 996.61 997.30 997.98 998.87 999.98 1001.16 1002.20 1003.27 1004.48 1005.42 1006.14 1006.74 1007.38 1007.89 1008.36 1008.85 1009.29 1009.65 1009.96 1010.19 1010.30 1010.30 1010.31
1001.09 1001.11 1001.24 1001.46 1001.81 1001.45 1001.39 1000.90 1001.45 1000.31 999.45 999.94 1000.14 1000.58 1000.26 1000.71 1000.97 1001.20 1002.74 1000.41 997.89 997.33 998.34 998.77 999.67 1000.64 1001.75 1002.82 1003.78 1004.83 1005.88 1006.48 1007.02 1007.80 1008.34 1008.93 1009.39 1009.88 1010.18 1010.51 1010.61 1010.70 1010.72 1010.73
1002.53 1002.89 1003.28 1003.44 1003.41 1003.60 1003.60 1004.11 1003.92 1002.43 1001.34 1001.09 1000.86 1000.79 1000.44 1000.18 1000.10 1000.43 1000.08 999.83 999.25 999.08 999.65 999.70 1000.63 1001.67 1002.68 1003.64 1004.36 1005.43 1006.43 1007.03 1007.48 1008.11 1008.64 1009.21 1009.74 1010.14 1010.54 1010.60 1010.74 1010.78 1010.92 1011.24
1003.39 1003.80 1004.12 1004.81 1004.35 1004.79 1005.24 1004.73 1004.95 1004.52 1005.03 1002.20 1001.39 1000.88 1000.66 1000.04 999.96 999.56 999.68 999.95 1000.02 1000.23 1000.22 1000.61 1001.60 1002.69 1003.71 1004.44 1005.18 1006.00 1006.70 1007.13 1007.64 1008.23 1008.79 1009.25 1009.68 1010.04 1010.16 1010.27 1010.62 1010.92 1011.60 1011.88
1005.03 1004.75 1004.55 1004.49 1004.64 1004.63 1005.01 1005.57 1006.14 1006.76 1005.31 1004.06 1002.47 1001.64 1001.04 1000.43 999.70 999.46 999.63 1000.07 1000.45 1000.80 1000.80 1001.54 1002.44 1003.44 1004.46 1005.17 1005.89 1006.48 1006.90 1007.28 1007.73 1008.20 1008.60 1009.05 1009.52 1009.81 1010.08 1010.39 1010.96 1011.38 1012.17 1012.43
1005.61 1005.14 1005.12 1004.94 1005.12 1005.28 1005.55 1006.02 1005.66 1006.17 1005.89 1004.37 1003.19 1001.96 1001.60 1000.95 1000.40 999.56 999.58 999.76 1000.40 1000.94 1001.44 1002.10 1002.88 1003.90 1004.77 1005.52 1006.14 1006.58 1006.90 1007.23 1007.65 1008.06 1008.37 1008.60 1008.74 1009.26 1009.40 1009.89 1011.42 1012.00 1012.11 1012.30
Wind_Speed
15 12 14 20 13 1 9 11 13 2 6 12 11 14 16 18 17 16 18 16 17 17 13 15 16 16 15 15 13 10 8 10 7 7 6 7 5 6 3 5 8 6 3 4
15 14 17 18 6 7 12 16 3 5 5 8 11 12 18 20 20 21 19 15 11 14 18 12 14 17 17 17 15 13 11 11 8 6 7 5 4 4 3 4 2 5 3 3
17 20 15 14 8 10 17 18 5 2 15 13 16 9 18 20 14 16 20 16 14 16 18 18 15 15 18 18 16 14 13 11 10 9 6 5 3 1 0 1 1 4 3 4
16 17 7 10 13 13 15 6 8 12 6 5 9 3 5 7 16 25 17 20 19 18 17 13 20 15 18 19 17 16 15 14 10 9 6 7 5 4 4 3 2 3 4 8
13 13 14 11 14 11 11 8 11 12 14 9 12 4 4 11 2 12 19 20 17 21 21 17 15 15 15 15 18 16 14 13 11 9 5 7 6 5 5 4 3 5 5 10
15 14 9 14 12 14 9 13 13 15 12 10 17 10 11 15 18 23 33 26 20 17 18 18 15 16 14 12 13 18 17 14 11 10 8 8 10 6 1 5 5 4 7 6
15 15 14 12 16 6 14 14 3 5 7 5 20 12 7 11 19 4 5 12 18 17 18 15 15 16 15 12 11 16 17 14 12 12 10 8 8 6 3 5 6 7 3 3
12 15 19 16 15 14 15 14 6 15 10 11 18 4 7 4 9 8 4 6 10 16 9 18 17 13 16 13 11 10 17 14 14 12 9 8 7 6 5 9 4 5 4 4
16 14 19 15 15 15 15 15 18 13 18 11 10 16 9 3 8 10 8 10 10 14 14 11 17 16 12 9 11 9 14 14 13 13 10 8 7 8 7 7 5 4 5 4
12 13 8 15 16 18 15 14 12 9 10 12 3 9 4 13 12 8 10 11 12 13 14 13 13 13 14 14 11 9 13 12 14 13 12 11 11 11 9 7 5 5 4 3
11 13 13 6 6 12 12 13 11 13 11 12 3 4 11 14 26 9 11 13 13 12 12 13 13 10 12 13 13 11 12 12 9 11 14 12 12 12 10 9 7 5 4 3
8 8 11 15 11 16 17 17 12 7 10 9 8 10 21 28 36 14 12 13 14 13 13 10 14 12 11 10 12 12 11 13 12 11 9 12 10 10 11 11 10 7 7 6
9 6 10 14 14 7 10 7 13 17 14 12 5 6 8 12 11 8 11 14 13 14 11 11 11 11 10 11 10 11 12 12 13 10 11 11 11 11 11 11 11 10 8 10
5 14 16 12 4 7 15 21 17 18 11 13 8 10 8 10 18 6 6 13 14 14 13 12 9 11 9 10 9 10 11 10 10 11 12 11 11 11 11 10 8 11 9 8
7 14 17 19 15 4 10 14 18 12 18 22 5 8 15 11 2 12 14 6 9 13 14 12 13 11 9 9 9 7 7 8 8 6 8 9 10 9 9 7 7 8 9 9
10 14 15 22 23 22 23 10 20 21 14 36 23 12 13 9 13 10 26 11 9 13 15 15 12 14 13 13 12 11 9 8 7 10 8 6 7 9 10 9 8 6 7 8
8 8 12 18 18 15 20 16 25 20 24 16 20 10 8 12 6 17 22 20 15 17 16 15 14 14 12 11 12 13 11 9 9 7 7 6 7 6 6 6 6 7 8 8
17 14 12 13 14 22 18 19 22 4 4 12 23 19 3 21 24 8 21 22 17 20 18 16 15 15 15 13 12 10 11 10 9 9 8 7 7 7 7 7 7 7 7 8
19 16 14 14 16 21 22 21 22 13 7 8 27 24 11 5 1 4 7 13 10 12 11 11 15 14 14 13 13 11 10 9 8 8 7 6 6 7 7 8 7 3 2 4
20 18 14 14 19 22 15 19 19 14 10 9 4 13 15 5 4 4 27 42 16 17 22 14 12 14 13 13 13 12 11 10 9 9 7 5 5 4 3 4 5 2 3 5
11 4 13 14 18 18 6 18 22 8 4 5 9 11 10 4 2 9 20 41 11 5 15 12 12 12 10 8 11 10 10 9 8 10 8 6 4 2 3 3 4 4 5 5
14 12 10 10 8 20 22 10 16 8 9 8 8 6 6 10 6 14 17 26 7 8 9 11 11 11 10 9 9 9 11 8 9 7 6 5 4 2 5 4 3 5 4 6
6 7 8 9 6 8 15 6 17 19 11 9 5 6 7 4 6 15 7 5 3 6 6 9 12 11 10 7 7 11 9 8 8 7 6 6 4 3 3 2 2 2 4 5
11 9 7 10 4 7 12 7 10 17 30 13 13 10 11 9 6 6 7 5 6 7 7 12 12 11 8 7 10 10 8 8 7 7 7 5 5 5 3 5 4 5 6 6
11 16 13 12 10 14 7 6 10 7 19 20 16 12 13 14 9 8 8 6 6 5 8 11 10 10 9 8 9 9 8 8 8 7 7 7 6 5 6 4 4 4 4 2
13 13 11 13 8 8 11 6 5 2 19 20 16 12 13 14 16 10 5 10 8 7 8 9 11 11 10 9 8 8 8 7 8 7 5 5 6 5 3 4 5 7 6 7
Wind_Direction
219 240 238 247 250 232 304 284 293 110 233 236 253 207 195 208 208 200 218 207 181 184 171 183 167 175 155 166 153 155 152 152 148 161 196 189 210 230 209 222 145 153 169 234
246 224 248 265 318 309 281 265 359 301 258 222 316 285 192 197 203 196 214 214 208 166 174 176 178 166 166 163 162 164 151 159 159 182 199 201 195 234 217 21 209 164 193 187
235 244 209 245 267 243 247 258 117 225 257 71 21 15 351 319 336 202 203 217 209 172 170 179 194 155 166 165 166 160 160 168 188 185 208 187 208 45 303 213 211 178 232 252
244 250 266 270 258 263 281 30 280 230 277 229 128 261 255 335 326 322 211 204 214 174 176 181 174 183 161 170 168 161 164 170 208 205 189 188 205 170 195 240 255 106 26 320
243 229 254 232 255 273 302 298 297 274 256 144 197 208 239 153 233 311 290 200 228 179 185 171 182 184 177 160 158 164 165 169 188 212 204 168 224 236 166 188 188 126 120 260
258 286 265 248 246 248 283 293 268 261 20 337 300 286 191 175 155 187 243 230 195 219 170 167 172 171 167 161 161 159 163 170 182 216 207 220 202 233 338 202 155 204 193 227
241 246 258 260 259 226 238 253 11 276 46 259 289 291 221 189 168 154 234 184 185 188 172 165 167 147 153 170 166 151 160 169 173 201 197 210 239 214 261 197 214 194 225 235
239 210 212 213 236 258 236 280 197 273 166 228 209 271 295 357 97 105 182 141 193 161 189 172 157 151 154 173 157 163 159 164 176 191 203 202 220 218 213 211 224 243 190 184
282 307 177 208 211 225 257 251 291 295 291 310 122 186 185 258 122 128 127 136 146 155 181 159 150 153 158 150 156 165 157 166 179 190 195 200 212 240 228 239 219 246 260 149
277 292 209 188 199 217 249 305 301 316 322 337 66 93 56 349 315 116 137 146 150 167 159 167 158 164 166 164 159 166 159 168 179 193 188 198 201 209 235 267 228 230 239 229
242 273 300 213 185 248 215 240 237 256 273 296 259 243 154 169 286 187 159 153 155 163 164 175 156 158 161 163 158 170 156 168 191 202 185 197 195 201 213 236 250 233 255 274
256 250 250 243 212 221 247 242 280 245 260 242 295 46 163 176 199 183 153 150 155 162 169 163 148 161 166 160 158 169 169 171 188 195 195 193 198 211 199 216 228 230 224 227
314 268 263 274 269 321 282 275 283 299 267 289 279 154 191 179 123 171 151 152 148 152 159 165 163 157 166 167 164 170 174 182 184 191 194 196 199 206 220 213 214 222 220 213
307 273 289 282 347 8 317 312 321 330 305 308 274 126 38 28 360 349 79 158 155 154 162 166 162 161 172 167 164 171 175 187 190 187 191 199 196 205 211 225 214 213 222 230
256 262 279 284 282 178 315 300 321 309 302 296 336 233 164 141 146 9 317 258 161 158 163 166 171 168 176 163 166 160 172 181 185 202 192 196 195 198 206 220 217 215 212 220
246 260 268 274 281 294 167 248 312 269 266 293 286 292 116 159 128 145 243 210 235 171 170 169 177 165 177 180 179 181 185 187 188 197 208 198 188 193 205 210 222 233 224 219
286 274 283 279 295 293 271 208 212 233 290 325 326 293 99 7 322 187 217 205 201 178 179 174 180 171 177 180 175 185 188 183 195 194 202 202 206 211 213 216 221 226 237 243
270 255 263 271 269 268 282 273 288 320 63 329 306 319 332 166 230 184 228 202 197 174 182 175 176 169 171 181 177 177 182 182 183 193 199 199 192 203 215 217 221 227 233 241
251 260 258 259 254 269 272 283 293 305 5 349 307 279 4 175 208 105 331 277 182 182 168 176 172 167 164 169 166 169 170 170 175 186 196 199 193 204 210 213 218 229 293 276
243 242 243 247 256 261 274 285 289 313 287 162 47 8 22 71 150 309 335 304 158 174 200 169 155 135 146 153 153 156 160 162 176 184 182 132 76 27 359 19 12 17 351 322
291 294 282 257 245 250 301 340 274 269 325 31 39 46 69 71 178 126 318 302 44 104 131 142 145 130 133 140 140 154 160 172 132 103 97 84 96 80 9 2 356 327 307 292
282 280 257 242 287 281 4 1 316 4 89 46 38 38 34 137 182 133 208 292 24 73 104 123 119 125 128 124 134 159 104 99 91 91 107 107 96 36 45 28 359 346 318 301
325 9 341 331 292 325 350 357 350 350 20 20 351 1 355 12 333 193 147 185 151 133 117 125 108 102 102 118 151 112 122 123 125 132 123 121 120 122 134 118 62 321 13 356
313 2 313 329 114 41 316 330 33 357 319 346 348 358 341 342 337 315 121 135 132 153 138 107 114 124 121 124 102 114 134 133 133 130 139 141 143 129 91 73 38 52 32 351
295 309 289 290 278 345 241 95 41 338 312 320 327 347 332 318 316 305 142 140 149 145 118 118 129 126 134 120 125 143 145 145 145 152 144 150 142 187 143 133 62 82 74 54
270 277 296 314 338 327 303 185 142 348 310 308 308 321 323 327 316 302 189 147 143 151 129 136 131 138 145 144 148 146 154 155 149 150 170 182 174 185 124 114 130 46 97 174